Wind_Speed
21 20 19 17 17 15 14 13 13 13 13 13 13 14 13 14 15 14 13 13 13 14 14 14 14 14 14 15 15 14 13 13 13 13 13 13 13 13 13 13 13 14 15 16 17 18 17 16 16 16 16 15 15 16 15 16 16 16 15 15 15 15 14 13 13 14 14 15 16 17 18 19 19 19 20 20 19 19 19 19 19 19 18 17 16
19 19 17 16 16 14 13 13 13 14 14 14 15 14 13 14 14 13 12 11 12 13 14 14 14 13 13 13 13 13 13 13 13 12 11 12 12 13 13 13 13 14 15 16 17 18 17 16 16 15 15 14 15 15 15 16 15 15 15 15 15 15 15 15 14 14 15 17 18 19 20 20 20 20 20 20 19 19 18 18 18 17 16 15 15
16 17 15 15 15 14 13 12 13 14 15 14 14 13 12 13 12 11 10 10 10 11 12 12 12 12 12 11 12 12 12 12 12 11 11 11 11 12 13 12 12 13 15 16 16 17 17 16 15 15 14 14 15 15 15 15 15 16 16 15 14 14 14 14 14 15 16 19 21 21 21 21 21 21 20 20 19 18 17 17 17 16 16 16 16
15 15 15 15 15 14 13 12 13 13 14 13 12 11 11 10 10 10 9 8 9 9 10 11 10 10 10 10 11 11 11 11 10 10 10 10 10 11 13 13 12 13 15 16 16 16 16 16 15 15 14 14 14 15 15 15 15 16 16 15 14 14 14 13 15 16 18 21 22 21 21 20 20 20 20 19 18 17 17 17 17 17 17 17 17
15 15 15 15 15 14 13 12 12 11 12 11 11 10 9 8 8 8 7 7 7 8 9 9 8 8 8 9 10 9 9 9 9 10 10 11 11 11 13 13 12 13 15 16 16 15 16 15 15 14 14 14 14 15 14 14 16 16 15 14 14 13 14 14 16 18 20 21 22 21 20 20 19 19 19 19 18 18 18 18 18 17 17 16 16
16 16 16 15 14 13 12 11 10 9 9 9 8 7 7 7 6 6 6 6 6 7 8 8 7 7 7 8 9 8 8 8 8 9 10 11 11 12 12 13 12 13 15 16 16 15 15 15 14 13 13 14 14 14 14 14 16 15 14 13 13 14 14 15 17 20 21 22 22 21 21 20 20 20 20 19 18 18 18 17 16 16 15 15 15
16 15 15 15 13 12 10 9 8 7 7 7 6 6 6 6 5 6 6 5 5 6 7 6 6 6 6 7 8 8 7 7 7 8 10 11 12 13 12 12 13 13 15 16 16 15 15 15 14 13 13 13 13 14 14 15 16 15 13 13 13 14 16 18 20 21 21 22 22 22 22 21 21 20 19 19 18 17 16 15 15 15 15 14 14
15 14 14 13 12 11 9 8 7 7 7 7 7 7 6 6 6 6 6 6 5 5 6 6 6 6 6 7 8 7 7 7 8 8 10 12 13 13 12 12 13 14 15 16 16 15 15 14 14 13 13 13 13 13 14 15 16 14 13 14 14 16 19 21 21 22 22 22 23 22 22 21 20 19 19 18 17 16 15 15 15 15 14 14 13
15 14 13 12 11 10 9 8 7 7 7 7 7 8 7 7 6 6 6 5 5 5 6 7 7 7 6 7 8 8 8 8 8 9 10 12 13 13 12 12 13 15 15 16 16 15 14 14 14 13 12 13 13 13 14 16 16 15 14 14 16 18 21 22 22 22 22 23 23 22 21 20 19 18 18 17 16 15 15 16 15 14 14 13 12
14 13 12 10 9 8 8 7 7 7 6 6 6 6 6 5 5 5 5 4 4 5 7 8 9 8 7 8 9 9 9 9 9 9 11 11 12 13 13 13 14 15 15 15 15 15 15 14 14 13 13 13 13 13 14 16 16 15 14 15 17 20 22 22 22 22 22 23 23 21 20 19 18 18 17 16 16 16 16 15 15 14 13 13 12
13 11 9 8 6 5 5 5 4 4 4 4 4 4 5 4 4 4 5 5 5 6 7 9 10 10 9 9 10 11 10 10 10 10 11 11 12 13 13 14 15 16 16 15 15 15 15 14 14 14 13 13 13 14 15 16 15 14 14 16 18 20 21 22 22 22 22 23 22 21 19 19 18 17 17 16 16 16 15 15 14 14 13 13 13
11 9 7 6 4 4 3 3 3 3 3 3 3 3 4 4 4 5 6 6 6 6 8 10 11 11 10 10 10 11 11 11 10 11 11 11 12 13 14 15 16 17 16 16 15 15 15 14 14 14 14 14 14 14 15 14 14 15 15 17 19 21 21 21 22 22 22 22 22 20 19 18 18 17 16 16 16 15 15 14 14 14 14 13 13
8 7 5 5 4 3 3 3 2 3 4 3 3 3 3 4 4 5 6 6 7 6 8 11 11 11 10 10 10 10 11 10 11 11 12 12 13 14 14 16 17 17 17 17 16 15 15 15 15 15 15 14 14 15 15 15 15 16 18 19 21 21 20 21 22 23 22 22 21 20 19 18 18 17 16 16 16 15 15 15 15 15 15 14 14
7 6 4 4 3 3 2 3 2 2 3 4 4 3 3 4 4 5 6 6 6 7 8 10 11 11 10 10 10 10 10 10 11 12 13 13 14 14 14 16 17 18 17 17 16 16 16 15 16 16 15 14 15 15 15 16 17 19 20 21 21 20 20 22 23 23 22 21 20 19 18 18 17 17 16 16 16 15 16 16 16 16 16 16 15
6 5 4 4 3 3 3 3 3 3 3 4 4 4 4 5 5 5 6 6 7 8 8 10 11 11 10 10 10 11 11 11 12 14 14 14 14 14 15 17 19 19 18 17 17 17 17 16 16 16 15 15 14 15 16 17 18 19 20 21 21 20 19 22 23 22 21 20 19 18 18 18 17 17 17 17 16 16 16 16 17 17 17 17 17
6 5 4 3 3 4 4 4 3 4 4 4 4 4 5 5 5 6 7 7 7 8 8 9 10 11 10 10 11 12 13 13 14 15 16 15 15 16 17 19 19 19 18 18 18 17 17 16 17 16 15 15 15 16 16 18 19 19 20 21 20 20 20 22 22 22 20 19 18 18 17 17 17 17 17 17 17 17 17 17 17 17 18 18 18
6 5 5 5 5 4 4 4 4 5 6 5 5 5 5 5 6 7 7 8 8 9 8 9 10 11 11 11 12 14 14 15 16 16 16 16 17 18 19 19 20 20 20 19 18 17 17 17 16 16 16 15 16 16 17 19 19 19 20 20 20 20 20 21 22 21 20 18 18 17 18 18 18 18 18 17 17 17 18 18 18 18 19 19 19
6 6 6 6 6 5 6 6 6 6 6 6 6 6 6 6 7 8 8 9 9 10 9 10 10 11 12 12 13 15 16 16 16 17 18 18 19 20 20 20 21 21 21 19 18 17 16 16 16 16 16 16 16 17 18 19 19 19 20 21 20 20 21 22 22 20 19 18 18 18 18 18 18 18 18 17 18 18 18 19 19 19 20 20 21
7 7 7 7 7 7 8 8 7 7 8 8 8 8 8 8 9 10 11 10 10 11 11 12 12 12 13 13 14 16 18 18 17 17 19 20 22 22 21 21 21 22 21 19 17 17 17 17 16 16 16 16 17 18 19 19 19 20 20 21 20 20 21 22 21 20 19 18 18 18 19 19 18 18 18 18 18 18 19 19 20 20 21 22 23
8 8 8 8 9 10 10 10 9 9 10 11 11 10 10 11 11 12 12 11 11 12 12 12 13 13 14 15 16 17 18 18 18 18 20 22 24 23 22 21 21 21 20 19 18 17 17 18 17 16 16 16 17 18 19 19 20 21 21 20 19 20 21 22 22 20 18 18 18 19 19 19 18 18 18 19 19 19 20 20 21 22 23 23 24
9 9 10 10 10 11 11 11 11 11 12 12 12 12 12 13 13 14 14 13 13 14 13 13 15 15 15 17 18 19 19 18 19 20 21 23 24 22 21 20 20 20 20 19 18 17 18 18 17 17 16 17 17 18 19 20 20 21 21 21 19 20 21 22 21 19 18 18 19 19 19 19 18 18 19 19 20 20 22 23 24 25 25 25 26
10 10 11 12 12 11 12 13 13 12 12 12 13 13 14 15 15 15 16 15 15 16 15 15 16 17 17 18 19 20 20 19 19 20 22 23 22 21 20 20 20 19 19 19 18 18 18 18 17 17 17 17 18 18 19 20 21 22 21 20 20 20 21 21 20 18 18 19 19 19 19 19 19 19 20 20 21 23 24 26 26 27 27 27 27
10 11 11 12 13 12 13 14 13 13 12 13 14 15 16 17 17 17 18 18 17 16 16 16 17 18 18 19 20 20 20 19 20 21 22 22 21 20 20 20 20 19 18 18 18 18 18 18 18 17 17 18 18 18 18 19 21 21 21 20 20 21 21 21 19 18 19 19 19 19 19 19 20 20 21 22 23 25 27 28 29 29 29 29 29
10 12 11 13 13 12 13 13 12 11 12 14 14 16 17 18 18 18 19 19 18 17 16 16 17 18 19 20 21 20 20 21 22 22 21 21 20 19 19 19 18 18 18 17 18 17 17 18 18 18 18 17 17 18 19 19 21 21 20 20 20 21 21 20 19 18 18 19 19 19 20 20 21 21 23 24 26 27 29 29 30 30 30 30 30
10 12 12 13 13 13 13 12 12 12 13 14 14 16 17 18 19 19 19 19 19 19 18 19 19 20 20 20 21 21 21 22 23 22 21 20 19 19 18 17 17 17 17 17 17 17 17 17 17 17 17 16 15 17 20 20 20 20 20 19 20 21 20 19 17 17 18 19 19 19 21 21 22 23 25 26 27 29 29 30 30 30 30 30 30
12 13 13 13 13 14 14 12 12 13 15 15 15 17 18 19 20 19 20 20 20 21 21 22 22 22 22 22 23 23 23 24 24 22 21 20 20 18 18 17 17 17 17 17 17 16 15 15 15 16 16 15 14 15 20 20 20 20 19 19 20 20 19 17 17 17 19 19 19 20 21 22 24 25 26 27 28 29 29 29 30 30 30 30 30
12 13 14 14 14 15 14 13 13 14 16 16 16 18 19 19 20 21 20 21 21 22 24 24 24 25 25 25 25 25 24 24 23 22 21 21 20 18 18 17 16 16 16 16 16 15 14 14 14 14 15 16 16 17 19 20 20 19 18 18 19 19 17 17 17 18 19 19 20 21 22 23 25 26 27 27 27 28 28 29 29 29 30 30 31
13 14 14 15 15 15 14 13 13 15 17 17 17 18 19 19 19 21 21 21 21 22 24 25 25 26 26 26 25 24 23 23 22 21 21 20 19 18 18 18 17 16 16 15 15 15 14 14 13 13 16 18 19 19 18 18 18 17 17 18 18 17 16 16 17 18 19 19 20 21 22 23 25 26 26 26 27 28 28 29 29 29 30 30 31
13 14 14 15 15 14 13 13 13 15 16 16 18 18 18 19 19 20 21 21 22 22 23 24 24 25 26 26 25 24 23 22 21 21 20 18 17 17 17 18 17 16 15 15 15 15 14 14 13 14 17 19 19 19 18 18 18 16 16 16 16 16 15 15 17 18 19 18 19 20 21 23 24 25 25 25 26 27 28 28 29 29 29 30 30
14 14 14 16 15 13 12 14 14 14 15 16 18 18 18 19 19 20 20 21 22 22 22 22 22 22 24 24 24 23 22 21 20 19 18 17 16 16 16 17 18 17 15 14 15 15 14 13 14 15 18 19 18 19 19 18 18 16 14 14 16 16 14 15 17 18 18 18 18 20 20 21 22 23 24 25 25 26 27 27 28 28 28 29 30
15 15 15 16 15 14 12 13 13 13 14 16 18 19 18 18 19 19 20 20 21 21 20 20 20 20 22 23 23 22 21 20 19 18 17 16 16 16 16 16 17 16 15 14 14 15 14 13 12 13 16 18 17 19 19 17 16 14 13 14 15 14 14 14 16 18 18 17 17 19 20 20 21 21 23 23 24 25 26 26 26 27 28 29 29
15 15 16 17 15 14 13 13 13 12 13 14 17 18 18 17 18 19 19 19 19 19 19 19 19 19 19 20 21 21 21 20 19 18 17 16 16 16 15 14 15 15 14 13 12 13 13 13 13 11 14 17 18 19 19 16 14 12 13 13 13 12 13 13 16 17 17 16 16 18 19 19 20 20 21 22 23 24 24 24 25 26 27 28 29
14 15 16 17 16 15 15 15 14 14 13 14 15 16 17 17 17 18 18 18 17 17 18 18 18 17 17 17 18 19 19 19 18 18 16 16 16 15 14 13 13 13 13 12 12 12 12 12 12 11 11 15 18 20 19 16 13 12 13 13 12 10 11 14 17 16 14 14 15 17 18 19 19 19 20 21 22 22 23 23 24 25 26 27 28
11 14 15 16 17 16 16 15 15 15 14 14 15 15 16 16 16 16 16 17 17 16 17 17 15 15 14 14 16 17 18 17 17 16 16 15 15 14 14 13 12 12 13 13 13 13 12 12 12 12 11 12 16 18 19 16 12 13 14 13 11 9 10 14 16 14 13 13 13 14 16 18 20 19 19 20 21 21 22 22 22 23 25 26 27
10 12 14 15 16 16 16 15 14 14 14 15 15 15 15 15 15 15 16 16 16 15 15 15 13 13 13 13 14 15 16 15 15 14 14 14 13 13 13 12 12 12 13 13 12 12 12 12 13 13 12 11 12 15 17 15 12 12 12 11 10 9 10 13 13 13 14 13 12 12 13 16 19 18 18 19 20 21 21 20 21 22 23 24 25
11 11 12 14 14 15 15 14 15 14 13 14 15 15 15 16 15 14 15 15 15 15 14 13 13 13 12 12 13 14 14 14 14 13 13 13 13 13 12 12 11 11 11 11 10 10 11 12 12 13 12 10 11 14 16 14 12 11 10 10 9 9 9 11 11 12 13 12 11 11 12 15 17 16 17 17 18 19 19 19 19 20 21 23 24
11 11 12 13 14 15 15 15 15 15 14 14 14 15 15 16 16 15 14 14 14 13 14 14 13 13 12 12 12 12 12 13 13 12 12 13 13 12 11 11 10 9 9 8 9 9 10 11 11 11 12 12 12 14 15 15 14 12 9 9 8 7 8 9 9 11 11 10 9 10 11 15 15 14 17 17 16 18 18 17 18 18 20 21 22
11 11 12 12 12 13 14 15 16 15 16 16 16 16 15 16 15 15 14 14 13 12 12 13 13 13 12 12 11 11 11 12 12 11 12 12 12 12 11 11 10 9 8 8 8 8 10 11 11 12 13 13 13 14 15 16 16 13 10 9 7 7 7 8 9 9 9 10 10 8 10 14 13 12 16 16 15 17 17 17 16 17 18 19 21
11 11 12 12 11 12 13 14 15 15 16 17 17 16 16 16 15 15 14 14 14 12 12 12 13 13 12 12 11 10 11 11 11 11 11 12 12 12 11 11 10 9 8 8 7 8 10 11 12 13 14 14 13 13 14 15 16 14 11 9 8 7 6 8 8 7 8 10 11 9 10 13 11 11 14 14 13 15 17 17 16 15 16 18 19
12 11 12 12 11 12 12 14 15 15 15 16 17 16 16 16 15 14 14 13 13 13 12 12 13 13 12 12 11 11 10 10 11 12 11 11 11 11 11 10 9 9 9 8 8 9 11 13 12 12 14 14 12 12 11 12 14 13 10 9 8 7 6 7 6 5 8 11 11 9 10 12 9 9 11 10 11 14 17 17 15 14 15 17 17
12 12 12 12 12 12 12 13 14 15 15 15 16 15 15 15 14 14 14 13 13 13 12 12 12 13 12 12 12 11 10 9 11 12 11 10 10 10 11 10 9 8 9 8 9 10 11 13 12 12 12 12 12 11 9 11 14 12 9 9 8 8 8 6 6 5 11 12 11 9 9 9 7 7 8 8 8 12 16 16 15 14 14 15 15
13 13 13 13 13 12 13 13 13 15 16 15 15 15 15 15 14 14 13 13 13 12 12 12 12 12 12 12 12 11 10 9 10 10 11 10 9 9 10 10 9 8 9 9 9 10 11 13 12 12 12 12 13 13 10 12 15 13 11 11 9 9 9 7 6 5 10 11 11 9 7 5 5 6 6 6 7 9 13 14 13 14 14 14 14
13 13 13 13 13 13 13 13 13 13 15 15 14 14 14 14 14 13 12 12 13 12 12 12 12 11 12 11 11 11 10 9 9 9 10 10 9 9 9 10 9 8 9 9 9 10 12 13 13 12 12 13 14 14 12 12 14 14 13 11 11 11 11 8 5 4 6 5 7 8 7 4 2 5 4 4 6 8 11 12 12 13 13 13 14
14 14 14 13 13 13 13 13 13 13 13 14 13 11 11 12 12 11 12 12 12 12 12 12 12 12 11 10 10 11 10 9 9 9 9 9 9 10 9 9 9 9 9 10 10 10 11 13 13 13 13 15 15 15 13 12 12 13 11 11 11 12 11 8 5 3 3 2 1 4 5 5 3 4 4 4 6 7 8 9 11 13 12 12 14
14 14 14 13 13 14 13 12 12 12 12 12 12 11 10 9 9 9 10 11 11 11 11 12 12 12 11 10 10 10 10 9 9 9 9 8 9 9 9 9 9 8 8 9 9 9 10 11 12 13 13 14 15 16 15 13 11 11 11 12 12 12 11 10 7 4 3 3 3 2 5 6 6 6 5 5 5 6 7 9 11 11 12 11 12
14 14 14 13 13 13 13 12 11 11 11 11 11 12 11 10 8 7 7 9 10 10 11 12 12 12 12 11 10 9 9 9 9 8 8 7 8 9 9 9 8 7 8 8 8 8 9 10 12 13 12 11 13 15 14 14 14 12 12 13 12 10 11 12 9 7 5 4 4 5 7 7 7 7 7 6 6 7 7 10 11 10 10 11 10
14 14 14 14 14 13 13 12 11 11 11 11 12 12 13 12 11 9 8 9 9 10 11 11 11 11 11 11 10 10 10 9 9 8 8 8 7 8 9 8 8 7 7 7 8 8 9 9 11 12 12 10 11 13 13 15 15 13 12 12 11 9 11 12 11 11 11 9 8 7 7 7 5 5 7 8 9 9 8 10 10 9 10 10 10
15 15 15 15 15 14 13 12 11 11 10 11 11 12 13 13 11 10 10 10 10 10 10 10 10 10 10 10 11 11 10 10 9 9 8 8 7 8 8 7 7 7 6 6 7 7 8 9 9 10 11 11 11 11 13 14 13 12 11 10 9 9 11 13 13 12 11 9 8 5 4 4 4 5 6 8 9 10 9 10 9 9 10 9 9
16 15 15 15 15 14 14 13 12 11 11 10 11 11 11 12 12 11 11 11 10 10 10 9 9 9 9 9 10 11 10 10 9 9 9 8 7 7 7 7 7 7 6 6 6 7 8 8 9 10 10 11 11 11 11 12 11 11 11 10 9 8 9 11 14 13 9 7 6 5 5 4 5 7 7 6 7 9 10 12 11 9 9 9 9
16 16 16 16 15 15 14 13 13 12 11 11 11 11 11 11 12 12 12 11 11 11 10 9 9 10 10 9 10 10 10 10 9 9 9 8 8 8 8 7 7 7 6 6 6 7 7 7 9 10 10 10 11 11 10 11 10 9 10 12 12 9 8 10 12 10 8 7 6 6 6 5 6 6 5 3 5 8 10 11 11 9 9 11 11
17 17 16 17 16 15 14 14 14 13 12 11 11 11 11 11 11 11 11 11 11 11 11 10 10 11 11 11 11 10 10 9 9 9 9 8 8 8 8 7 7 7 7 6 6 7 7 6 6 8 9 9 10 10 10 11 11 10 11 13 12 10 9 9 8 7 7 7 6 6 7 6 5 5 5 4 5 8 9 9 8 7 9 11 11
Wind_Direction
140 138 137 138 139 143 143 144 144 142 137 132 130 129 127 121 118 119 118 118 117 112 113 113 109 103 96 93 92 91 89 89 88 87 89 91 91 89 88 90 99 106 108 109 110 109 108 108 107 104 102 100 100 99 97 92 88 87 85 84 82 80 78 75 75 74 76 79 80 82 84 87 86 83 80 79 76 74 72 71 70 70 70 70 70
133 132 135 137 137 140 141 143 141 136 131 128 127 127 125 120 118 117 116 117 116 112 112 109 104 101 97 96 95 92 88 87 89 90 92 94 96 96 91 89 98 107 110 111 113 114 111 111 109 106 103 101 102 100 97 92 89 87 85 84 81 78 74 71 74 76 80 84 85 84 85 84 82 79 78 77 75 72 70 69 68 69 69 68 68
133 133 137 138 138 139 139 140 138 133 130 130 128 126 124 122 121 121 123 124 121 117 114 109 107 105 103 100 95 91 86 86 89 90 90 91 95 98 96 94 101 110 113 113 115 114 113 114 112 108 105 104 103 102 98 92 89 87 85 83 81 78 74 72 75 80 84 86 85 83 81 80 78 77 76 75 73 71 69 69 68 67 65 64 63
136 134 136 137 135 136 135 136 135 132 131 131 129 127 125 125 128 129 132 133 130 124 117 112 111 108 106 101 94 88 84 86 87 88 89 91 95 102 105 104 108 114 116 115 115 114 114 115 112 109 108 107 105 105 100 93 91 89 87 84 80 76 74 75 78 83 86 86 84 81 77 76 75 75 75 74 73 71 69 67 64 62 60 58 57
136 135 134 133 129 131 134 134 134 132 130 129 129 130 131 133 136 139 144 146 141 130 118 113 111 108 104 101 96 92 89 88 88 90 92 92 95 106 110 109 112 116 116 115 115 115 115 113 111 110 108 107 107 107 100 95 94 90 88 86 81 74 71 75 82 86 86 83 80 76 73 72 73 73 73 72 71 68 65 62 59 58 56 55 53
136 136 133 133 131 134 133 132 133 130 128 128 131 135 142 146 149 157 165 169 158 135 120 117 117 114 110 107 102 100 99 96 96 96 97 95 97 107 109 108 113 116 115 114 114 115 114 112 111 109 107 107 109 106 100 98 95 91 87 82 78 74 73 80 85 86 83 79 76 73 71 71 71 71 70 68 65 63 60 57 55 54 51 50 48
139 139 136 136 135 138 134 132 133 131 135 136 142 150 162 166 171 181 189 191 174 145 129 130 133 129 125 119 113 111 112 111 110 106 102 98 102 108 107 108 115 117 115 114 114 115 113 112 110 107 106 108 110 107 102 100 99 95 90 83 77 75 79 86 87 84 81 77 75 73 71 70 69 67 66 64 61 58 55 51 48 46 44 43 42
143 142 139 138 137 140 138 139 139 142 150 152 160 167 177 181 185 192 200 201 187 166 147 151 157 152 147 131 122 122 124 125 122 115 108 103 106 108 106 109 118 120 116 115 116 114 112 109 106 104 105 108 109 108 105 104 102 95 87 81 75 77 84 87 86 83 80 77 75 72 70 68 67 64 63 61 57 54 50 46 42 40 39 38 37
143 142 139 139 140 144 144 148 151 155 162 164 171 174 179 180 183 188 193 199 191 174 160 169 170 160 155 139 130 129 132 134 128 120 112 107 110 111 109 114 120 120 115 115 116 115 111 107 106 104 105 106 108 108 105 104 100 91 84 79 76 81 86 87 84 82 79 77 74 71 68 66 64 61 58 55 51 49 47 45 41 38 36 34 32
140 139 139 140 141 144 149 154 158 162 169 168 172 172 171 171 175 176 175 177 167 162 167 174 168 157 156 143 135 135 137 135 127 121 116 112 115 118 117 119 121 118 114 114 116 116 111 107 106 104 104 105 107 106 104 103 99 94 88 81 79 85 87 86 83 81 78 75 72 68 66 62 59 56 53 49 46 45 45 43 38 35 32 29 25
135 134 133 131 130 136 142 143 147 153 156 151 157 157 152 162 166 164 165 161 151 157 169 172 165 158 157 145 139 142 140 134 125 119 119 119 121 123 121 120 120 118 114 115 116 114 110 107 105 103 102 103 104 103 103 102 99 95 88 82 84 88 88 85 82 79 76 73 70 66 62 59 56 53 50 46 42 40 39 36 34 31 29 26 22
126 125 121 114 113 116 115 112 114 121 124 121 130 139 141 153 153 154 161 161 155 157 163 165 163 158 156 150 146 147 142 136 130 123 123 128 126 124 124 123 123 121 116 116 115 111 108 107 103 102 102 102 101 100 100 97 95 90 84 85 89 90 87 85 82 77 74 71 67 64 61 57 54 50 46 42 37 34 32 30 31 31 31 29 26
119 114 107 99 91 91 98 101 102 116 121 121 124 129 133 143 146 147 151 157 153 149 155 158 158 156 156 155 152 150 144 141 136 131 131 133 129 127 129 129 127 123 118 116 113 110 108 107 104 103 103 101 100 98 94 92 91 89 88 91 91 88 86 84 80 75 72 68 65 63 60 56 52 46 40 36 32 28 28 30 32 34 35 35 35
108 102 92 80 77 86 97 97 101 115 123 126 127 129 131 139 143 144 148 153 146 141 147 151 152 153 158 157 153 150 145 141 137 136 135 132 130 130 132 132 127 121 117 115 113 112 111 109 106 105 103 100 99 97 93 90 89 89 91 93 92 88 84 81 76 72 69 66 64 62 58 53 47 40 35 32 29 28 31 34 36 38 39 40 41
98 86 79 79 90 103 107 99 100 111 114 118 122 129 133 140 145 149 151 150 147 144 143 147 149 152 161 161 153 149 142 139 139 139 136 133 131 131 132 130 125 119 117 115 115 115 113 111 108 106 104 100 98 96 93 91 90 90 92 92 91 88 84 79 75 71 68 66 63 60 55 49 42 37 33 30 30 33 36 38 40 41 42 43 43
93 81 82 93 96 103 109 102 104 113 111 110 121 133 138 146 150 150 147 146 148 146 143 146 148 151 160 159 151 146 139 140 142 138 139 137 132 131 130 126 121 117 116 115 116 116 114 112 109 108 105 101 99 96 94 93 94 95 95 94 92 89 84 78 75 72 69 66 62 57 51 45 40 36 34 33 35 39 41 42 44 43 43 44 44
90 87 94 99 94 101 106 104 114 117 115 120 133 143 146 151 148 145 141 141 144 141 139 142 147 150 153 153 150 143 138 141 142 139 141 138 132 131 128 122 118 115 115 116 118 117 115 112 110 109 106 103 101 99 97 96 98 99 99 97 94 90 84 79 76 73 69 65 58 52 47 44 41 39 38 39 42 44 46 47 47 46 45 46 46
93 94 101 106 104 108 106 109 119 117 115 121 132 133 136 138 135 139 136 136 140 136 134 139 146 149 147 150 148 141 139 140 140 140 139 135 132 131 126 120 116 115 116 117 118 116 113 111 110 110 107 105 104 101 99 98 100 102 101 98 94 89 84 80 76 72 68 61 53 48 45 45 44 44 44 46 48 50 51 51 51 50 48 48 47
95 102 108 106 104 105 106 112 116 118 118 118 121 119 118 118 119 129 135 137 135 128 132 140 143 143 141 143 141 139 140 138 137 137 136 133 132 130 124 120 118 117 117 118 117 114 111 109 110 111 109 108 105 102 100 100 101 101 100 96 93 89 85 81 76 70 64 56 50 48 47 47 48 49 51 53 55 56 56 55 55 53 52 51 50
92 107 110 106 105 104 106 111 114 117 119 116 113 110 109 111 114 122 130 132 124 122 130 135 133 134 136 135 136 138 138 136 134 133 132 131 130 128 123 121 121 120 118 118 115 112 110 108 109 110 109 108 105 103 103 103 101 100 99 95 92 88 86 82 75 68 61 54 51 50 51 51 53 55 57 60 61 62 62 60 59 57 55 54 53
93 103 104 105 110 108 106 108 114 115 114 111 106 105 105 107 111 118 124 125 122 123 128 127 126 131 133 131 133 134 134 133 131 131 131 131 129 126 123 123 122 120 118 117 115 112 109 107 109 110 110 109 105 104 105 104 101 101 100 96 92 88 85 79 73 65 58 55 53 53 54 56 57 60 62 64 65 66 65 63 61 59 58 57 55
99 100 102 110 115 113 107 106 112 113 111 108 105 103 101 103 107 114 121 122 122 123 123 122 124 129 131 130 131 131 133 133 130 130 132 130 128 125 124 125 123 120 119 117 113 110 107 107 109 110 111 109 106 105 105 104 103 104 102 97 93 89 85 79 72 64 59 56 56 56 58 61 63 65 67 68 68 68 66 65 63 61 60 59 57
99 100 107 116 118 115 109 109 111 110 110 106 103 102 101 104 106 110 116 118 121 122 119 119 121 123 126 128 129 130 132 132 129 129 131 130 128 127 126 125 122 120 119 116 113 110 109 111 110 110 110 108 107 105 104 104 104 104 101 96 93 90 84 78 71 64 60 59 59 60 63 66 68 70 71 71 71 69 68 67 65 64 62 61 60
97 102 110 114 115 113 108 109 109 107 107 103 101 102 103 106 108 110 112 114 117 116 114 116 119 121 123 126 128 130 130 128 127 127 130 131 128 126 126 123 121 121 119 116 113 111 112 112 111 109 106 105 107 108 106 105 104 103 100 96 94 90 83 76 69 64 63 63 62 64 68 71 73 74 74 74 73 71 70 68 66 65 63 61 60
106 105 108 113 117 114 110 110 111 111 107 103 103 104 104 107 112 114 113 112 111 109 109 112 115 118 121 123 125 127 126 124 123 125 129 128 125 123 122 121 121 121 119 117 113 114 116 114 111 107 104 103 103 108 109 106 106 104 100 97 94 88 81 75 70 67 67 66 66 69 73 75 76 77 77 75 74 72 69 67 65 63 62 60 59
112 108 108 115 119 115 115 113 114 113 106 101 103 104 104 107 112 114 114 112 109 108 108 109 111 114 116 117 120 123 122 121 120 122 125 123 121 120 121 122 123 122 120 119 117 116 115 112 110 108 106 102 104 111 111 111 110 104 98 96 92 86 81 75 70 70 70 69 70 73 76 78 79 79 77 75 73 71 67 65 63 61 61 60 59
113 111 114 117 116 116 117 114 113 110 105 103 102 104 106 108 111 112 113 111 110 110 110 110 110 112 112 112 116 120 120 119 120 121 121 120 119 120 121 122 124 123 122 122 120 116 111 108 107 113 116 113 116 116 111 111 107 101 98 96 92 87 83 76 72 73 72 70 72 76 78 80 81 80 78 75 71 68 65 62 60 59 60 60 60
116 115 119 119 117 118 119 116 113 109 106 106 104 105 108 110 113 113 112 111 110 110 111 112 112 113 113 113 116 119 121 121 121 121 120 119 119 119 120 123 126 125 123 124 121 117 113 110 110 121 125 118 116 112 107 108 103 101 101 97 94 91 85 79 76 77 74 72 75 77 80 81 81 80 78 74 70 66 63 60 59 59 59 59 58
118 119 123 122 120 120 121 119 115 110 108 108 106 107 110 112 115 113 112 113 113 112 111 112 113 115 114 115 117 119 121 121 121 121 120 121 120 120 123 126 130 128 128 128 123 120 118 119 124 129 125 117 113 111 111 111 105 102 101 99 99 94 88 84 82 79 74 72 76 79 81 81 81 79 77 74 69 65 62 61 60 60 59 58 57
122 124 125 123 122 122 123 121 117 113 110 109 110 111 113 116 117 113 111 115 117 117 116 115 116 117 117 118 119 119 120 119 120 120 120 122 121 122 126 130 133 131 131 131 126 121 118 121 127 127 124 118 116 116 115 110 105 103 106 107 103 97 90 86 85 82 76 71 75 80 81 81 80 78 76 73 70 66 62 62 62 61 59 57 56
127 128 126 123 123 122 120 120 118 113 110 110 111 111 112 117 118 114 113 116 117 118 119 120 120 119 120 120 120 121 121 120 120 120 120 121 121 121 126 132 132 130 131 132 129 123 119 121 120 121 123 120 118 117 113 106 101 106 113 110 105 101 92 87 89 86 78 73 74 80 80 80 78 76 75 73 70 66 63 63 63 62 60 57 56
128 129 128 124 124 124 123 124 122 117 114 114 112 111 113 116 117 114 116 118 117 118 120 121 122 121 121 122 122 123 122 123 123 122 123 122 122 122 126 131 129 127 129 131 128 122 122 123 117 122 126 123 123 119 113 107 104 111 114 110 110 106 97 96 93 84 78 76 76 78 79 77 75 73 73 71 68 65 63 64 64 63 61 58 56
128 128 130 128 129 130 130 133 132 129 124 119 116 116 118 118 117 115 118 121 119 120 120 120 122 122 122 120 120 122 123 125 126 127 127 125 125 127 130 130 127 125 125 126 125 121 121 120 116 119 123 127 132 127 117 112 113 119 116 109 109 104 99 98 89 79 75 76 77 78 76 75 72 69 69 69 66 63 63 64 64 63 61 59 57
130 130 133 132 133 132 132 137 137 135 130 125 123 121 120 119 119 117 118 119 120 122 121 121 124 124 123 121 120 121 122 124 126 128 129 130 129 128 128 125 125 128 128 126 124 123 121 120 120 120 122 132 140 135 124 118 125 127 115 106 107 108 104 97 88 86 84 74 72 75 73 72 69 63 63 64 63 61 61 62 63 63 61 60 58
137 135 137 135 135 132 133 138 137 136 134 131 130 128 126 123 123 120 119 121 124 126 123 124 126 125 124 123 124 123 124 126 126 129 129 128 125 121 122 123 128 132 128 123 122 124 123 121 122 122 125 135 142 137 127 125 129 121 110 109 115 118 110 98 90 90 86 71 66 73 70 68 65 58 56 56 56 57 58 60 61 61 61 59 58
144 142 141 137 137 135 136 138 137 138 138 138 135 132 130 127 126 124 123 124 127 128 126 127 127 127 126 126 128 127 127 128 127 129 127 125 123 121 124 126 127 124 120 120 120 125 127 124 124 124 126 132 138 134 128 131 129 114 111 120 121 119 109 97 89 86 82 72 71 79 74 64 59 54 52 49 50 52 53 57 58 56 58 58 58
148 148 144 140 139 136 137 137 138 141 143 144 140 136 133 129 129 128 127 125 125 125 125 127 127 128 130 129 130 129 128 126 124 126 125 124 122 121 120 116 114 113 117 122 121 126 132 129 126 126 126 128 137 138 137 141 133 119 122 125 115 113 113 107 99 87 84 83 80 81 78 67 55 53 53 47 49 51 49 52 54 53 52 54 55
154 150 144 143 140 138 138 137 139 143 145 148 146 143 138 135 134 133 131 126 124 124 123 126 128 130 131 132 131 130 129 124 121 121 121 121 120 120 118 114 114 117 119 120 124 135 139 135 132 131 130 132 144 150 150 148 137 127 129 125 105 108 119 112 98 82 85 93 81 71 75 64 50 53 53 44 46 51 51 50 49 50 49 49 50
160 153 148 147 144 142 142 141 141 143 146 147 149 148 143 140 140 137 133 131 129 128 128 128 129 132 132 133 133 131 131 126 123 123 124 125 123 122 121 118 119 120 120 120 130 144 146 144 141 137 136 141 152 160 159 150 136 124 121 115 101 111 123 111 98 81 85 86 73 66 66 55 40 49 53 43 43 48 51 51 46 46 46 46 45
165 161 156 149 148 149 146 145 143 143 147 148 150 151 149 147 144 139 137 137 135 132 133 133 133 133 132 134 133 132 135 134 131 129 130 130 123 124 124 122 125 126 129 134 141 146 148 147 144 142 145 149 157 164 163 147 128 112 109 113 107 113 115 113 120 96 79 69 63 71 66 51 38 45 47 36 39 46 49 50 49 48 45 43 41
169 165 160 154 153 153 150 148 145 145 148 150 152 153 151 148 144 144 144 142 139 136 136 135 135 134 132 134 134 134 138 139 138 135 134 131 125 126 129 133 138 137 139 145 143 141 143 143 144 148 150 153 159 162 160 141 123 109 114 122 113 110 103 111 143 103 65 46 41 62 66 49 44 47 40 22 26 46 49 47 48 49 45 42 39
172 170 164 162 160 158 156 152 150 149 149 151 155 156 154 150 149 150 148 143 140 139 139 138 138 138 135 137 138 139 142 142 142 139 134 132 129 129 134 141 144 144 145 143 137 137 139 140 143 148 147 152 161 159 153 141 126 118 125 126 113 108 102 107 143 112 66 37 18 32 36 22 44 50 38 19 16 38 47 42 42 44 40 37 37
175 175 170 169 166 165 162 157 157 155 153 153 157 162 158 153 152 152 150 147 147 146 145 144 144 142 139 140 143 145 148 146 144 140 138 137 135 134 139 142 141 145 145 136 134 141 144 143 144 147 150 160 165 156 148 144 135 133 133 127 115 105 98 96 109 99 81 55 3 6 350 317 33 40 27 34 26 31 41 35 31 35 32 31 33
180 177 177 176 171 170 168 163 163 161 159 156 157 162 158 155 156 156 156 155 155 153 151 152 150 147 145 144 146 148 151 150 145 143 142 141 140 140 141 139 137 141 139 132 136 145 146 145 145 150 160 169 166 152 145 144 142 143 134 125 124 116 111 112 106 86 96 139 287 341 327 309 341 8 7 32 35 32 35 30 23 24 23 27 31
183 179 182 181 176 174 172 171 169 167 166 161 157 156 155 163 167 165 160 157 160 161 158 160 157 152 152 150 151 152 152 152 150 149 147 147 147 145 142 139 138 142 140 136 139 143 143 143 144 147 159 170 164 152 148 145 147 149 133 122 129 130 129 130 133 140 140 169 203 282 325 327 328 340 346 354 27 26 20 27 26 22 17 17 25
186 181 183 183 181 179 176 177 177 173 171 168 166 159 157 169 176 175 169 163 169 169 164 166 163 158 157 157 158 158 156 156 156 158 157 156 154 150 150 146 143 149 146 139 139 139 139 142 146 146 151 165 164 158 157 155 155 154 140 134 139 143 139 136 150 178 175 180 220 272 301 307 315 337 347 356 34 22 6 24 27 22 14 9 19
189 183 182 183 185 185 182 181 179 179 179 177 175 169 166 171 178 180 177 178 183 177 171 170 165 164 165 164 165 165 163 162 163 167 166 163 158 158 159 153 151 156 149 141 137 137 143 150 155 154 153 159 165 167 171 166 161 155 147 148 150 146 143 150 172 189 185 199 226 255 284 293 306 336 345 1 22 10 5 25 20 8 3 3 18
191 187 185 185 187 188 188 186 181 182 187 185 181 180 176 173 180 185 180 184 187 183 182 174 166 170 172 170 171 171 170 170 171 173 173 169 164 164 164 161 160 158 150 149 142 140 149 152 156 158 153 154 161 171 177 171 162 156 152 157 163 156 153 165 187 195 194 214 231 235 257 275 298 324 329 339 354 353 6 25 14 2 358 355 12
195 189 185 186 189 189 189 189 185 185 188 189 187 190 186 176 181 186 185 188 186 185 191 182 173 176 178 179 179 179 178 177 179 179 179 178 175 176 176 175 172 162 158 161 158 154 151 145 151 156 155 159 163 168 177 172 162 159 156 157 167 172 165 169 188 205 218 233 236 233 234 240 278 307 319 328 339 340 0 23 19 13 13 5 9
201 193 186 186 191 191 191 191 189 189 188 190 192 193 193 186 185 187 188 191 189 190 192 188 189 187 185 189 187 185 184 183 184 185 186 185 185 188 187 186 181 170 170 174 173 164 150 147 154 157 161 167 166 169 176 174 170 170 166 162 165 176 176 166 178 203 227 237 237 247 261 273 293 306 309 319 340 338 355 20 20 15 20 10 5
205 201 189 187 193 191 193 195 193 192 188 191 194 192 195 195 192 194 191 190 194 198 194 190 199 199 193 193 192 190 187 186 191 192 192 193 193 196 196 194 189 183 183 185 181 164 151 155 156 157 166 170 168 172 174 174 181 185 181 177 174 178 177 167 173 192 203 217 230 242 255 271 297 316 312 318 342 345 357 15 14 13 18 8 359
Height
3191 3193 3195 3196 3196 3197 3198 3199 3199 3200 3201 3202 3202 3203 3204 3204 3204 3205 3205 3205 3205 3206 3206 3206 3207 3208 3208 3208 3209 3210 3211 3211 3211 3211 3210 3210 3210 3211 3211 3211 3211 3211 3211 3212 3212 3212 3213 3213 3213 3213 3213 3214 3214 3214 3215 3215 3215 3215 3215 3215 3215 3215 3215 3214 3214 3213 3213 3213 3213 3213 3213 3213 3214 3214 3214 3214 3213 3213 3212 3212 3212 3212 3212 3212 3211
3192 3193 3195 3196 3196 3197 3198 3199 3200 3201 3202 3202 3203 3204 3204 3204 3204 3204 3205 3205 3205 3206 3206 3206 3207 3208 3209 3209 3210 3211 3211 3211 3210 3210 3210 3210 3211 3211 3211 3212 3212 3212 3212 3213 3213 3213 3213 3214 3214 3214 3214 3215 3215 3215 3216 3216 3216 3216 3216 3216 3216 3216 3216 3215 3215 3214 3214 3214 3214 3215 3215 3215 3215 3215 3215 3215 3214 3214 3213 3213 3213 3213 3213 3212 3212
3193 3194 3195 3196 3196 3197 3198 3199 3200 3202 3202 3203 3203 3204 3204 3204 3204 3204 3205 3205 3205 3206 3206 3207 3207 3208 3209 3209 3210 3210 3211 3210 3210 3210 3211 3211 3211 3211 3212 3213 3213 3213 3213 3214 3214 3214 3214 3215 3215 3215 3215 3216 3216 3216 3217 3217 3217 3217 3217 3217 3217 3217 3217 3216 3216 3216 3216 3216 3216 3216 3216 3216 3216 3216 3216 3216 3215 3215 3215 3214 3214 3214 3214 3213 3213
3194 3195 3195 3196 3197 3198 3199 3200 3201 3202 3203 3203 3204 3204 3204 3203 3204 3204 3205 3205 3205 3206 3206 3207 3208 3209 3209 3209 3210 3210 3210 3210 3210 3211 3211 3212 3212 3212 3213 3213 3214 3214 3214 3214 3215 3215 3216 3216 3216 3216 3217 3217 3217 3218 3218 3218 3218 3218 3219 3219 3219 3218 3218 3218 3217 3217 3217 3217 3217 3217 3218 3218 3217 3217 3217 3217 3217 3216 3216 3215 3215 3215 3214 3214 3213
3195 3196 3197 3197 3198 3199 3199 3201 3202 3203 3203 3204 3204 3204 3203 3203 3204 3204 3204 3204 3205 3206 3207 3208 3208 3208 3208 3209 3209 3210 3210 3211 3211 3211 3212 3212 3212 3213 3213 3214 3214 3215 3215 3215 3216 3216 3217 3217 3217 3217 3218 3218 3218 3219 3219 3219 3219 3220 3220 3220 3220 3220 3219 3219 3218 3219 3219 3219 3218 3219 3219 3219 3219 3219 3218 3218 3218 3217 3217 3216 3216 3215 3215 3215 3214
3196 3197 3198 3199 3199 3200 3201 3202 3202 3203 3203 3203 3203 3203 3203 3203 3203 3203 3203 3203 3204 3205 3207 3207 3207 3207 3208 3209 3210 3210 3210 3211 3212 3212 3213 3213 3213 3213 3214 3214 3215 3215 3216 3216 3217 3217 3217 3218 3218 3218 3219 3219 3220 3220 3220 3221 3221 3221 3221 3221 3221 3221 3221 3220 3220 3220 3220 3220 3220 3220 3221 3221 3220 3220 3220 3220 3219 3218 3218 3217 3217 3217 3217 3216 3216
3197 3198 3199 3200 3201 3201 3202 3203 3203 3203 3203 3203 3203 3203 3203 3203 3203 3203 3203 3203 3204 3205 3206 3207 3207 3207 3208 3209 3210 3210 3211 3211 3212 3213 3213 3213 3213 3214 3214 3215 3216 3216 3217 3217 3218 3218 3218 3219 3219 3219 3220 3220 3221 3221 3222 3222 3222 3222 3221 3221 3222 3222 3222 3222 3222 3222 3222 3222 3222 3222 3222 3222 3222 3222 3221 3221 3220 3220 3219 3219 3218 3218 3218 3217 3217
3198 3199 3200 3201 3202 3203 3203 3203 3203 3203 3203 3203 3203 3203 3203 3202 3202 3202 3202 3203 3203 3205 3206 3206 3206 3207 3208 3209 3210 3210 3211 3212 3212 3213 3213 3213 3213 3214 3215 3216 3216 3217 3217 3218 3218 3219 3219 3220 3220 3220 3221 3222 3222 3223 3223 3223 3223 3222 3222 3222 3223 3223 3223 3223 3224 3224 3224 3224 3223 3223 3223 3224 3223 3223 3223 3222 3222 3221 3221 3220 3220 3219 3219 3218 3218
3199 3200 3201 3202 3202 3203 3203 3203 3202 3202 3202 3202 3203 3203 3202 3202 3202 3202 3202 3202 3203 3204 3205 3206 3206 3207 3208 3209 3210 3210 3211 3212 3212 3213 3213 3213 3214 3214 3215 3216 3217 3217 3218 3218 3219 3220 3220 3221 3221 3222 3222 3223 3224 3224 3224 3224 3224 3224 3223 3224 3224 3224 3224 3225 3226 3226 3225 3225 3225 3225 3225 3225 3225 3224 3224 3223 3223 3222 3222 3221 3221 3220 3219 3219 3218
3199 3200 3201 3201 3202 3202 3202 3201 3201 3201 3201 3202 3202 3202 3202 3202 3202 3202 3202 3202 3203 3204 3205 3205 3206 3207 3208 3209 3210 3210 3211 3212 3212 3212 3213 3213 3214 3215 3216 3217 3217 3218 3218 3219 3220 3221 3221 3222 3222 3223 3224 3224 3225 3225 3225 3225 3225 3225 3225 3225 3226 3226 3226 3227 3227 3227 3227 3227 3226 3226 3227 3226 3226 3226 3225 3224 3224 3224 3223 3223 3222 3221 3220 3219 3218
3199 3200 3200 3200 3201 3201 3201 3200 3200 3200 3201 3201 3201 3201 3201 3201 3201 3201 3201 3202 3203 3204 3204 3205 3206 3207 3207 3209 3210 3210 3211 3212 3212 3212 3213 3214 3214 3215 3217 3217 3218 3219 3219 3220 3221 3222 3222 3223 3223 3224 3225 3226 3226 3226 3226 3226 3227 3227 3227 3227 3227 3228 3228 3229 3229 3229 3229 3228 3228 3228 3228 3228 3227 3227 3226 3226 3225 3225 3224 3224 3223 3222 3221 3220 3219
3199 3199 3199 3200 3200 3200 3200 3199 3199 3199 3200 3200 3200 3200 3200 3200 3200 3201 3201 3201 3202 3203 3203 3204 3205 3206 3207 3209 3210 3211 3211 3212 3212 3213 3213 3214 3215 3216 3217 3218 3218 3219 3220 3221 3222 3223 3224 3224 3225 3226 3227 3227 3227 3228 3227 3227 3228 3228 3228 3228 3229 3230 3231 3231 3231 3230 3230 3230 3230 3230 3230 3229 3229 3228 3228 3227 3226 3226 3225 3224 3223 3222 3221 3220 3219
3199 3199 3199 3199 3199 3199 3198 3198 3199 3199 3199 3199 3199 3199 3199 3199 3199 3200 3200 3201 3202 3203 3203 3204 3205 3206 3207 3208 3210 3211 3212 3212 3213 3213 3214 3215 3216 3217 3217 3218 3219 3220 3220 3222 3223 3224 3224 3225 3226 3227 3228 3229 3229 3229 3229 3229 3229 3229 3230 3230 3230 3232 3233 3232 3232 3232 3232 3231 3231 3231 3231 3231 3230 3229 3229 3228 3227 3227 3225 3224 3223 3222 3222 3221 3220
3200 3200 3200 3199 3199 3198 3198 3198 3198 3198 3198 3198 3198 3198 3198 3198 3199 3199 3200 3201 3202 3202 3203 3204 3205 3206 3207 3208 3210 3211 3212 3213 3213 3214 3214 3216 3216 3217 3218 3219 3220 3221 3221 3222 3224 3224 3225 3227 3227 3228 3229 3230 3230 3230 3230 3230 3230 3231 3231 3232 3232 3233 3234 3234 3233 3233 3233 3233 3233 3233 3232 3232 3231 3230 3230 3229 3228 3227 3226 3225 3224 3223 3222 3221 3220
3200 3200 3200 3200 3199 3199 3199 3199 3198 3198 3198 3198 3198 3198 3198 3198 3199 3199 3200 3201 3201 3202 3203 3204 3205 3207 3208 3209 3211 3212 3212 3213 3214 3215 3216 3216 3217 3218 3219 3220 3221 3221 3222 3223 3224 3225 3226 3228 3228 3229 3230 3231 3231 3231 3231 3231 3232 3232 3233 3233 3234 3235 3236 3235 3235 3235 3235 3235 3235 3234 3234 3233 3232 3231 3230 3230 3229 3228 3226 3225 3224 3224 3223 3222 3221
3201 3201 3200 3200 3200 3199 3199 3199 3199 3198 3198 3198 3198 3198 3198 3198 3199 3199 3200 3201 3202 3202 3203 3204 3206 3207 3208 3209 3211 3212 3213 3214 3214 3216 3217 3217 3217 3218 3219 3221 3222 3222 3223 3224 3225 3227 3227 3228 3229 3230 3231 3232 3233 3233 3233 3233 3233 3234 3234 3235 3236 3237 3237 3237 3236 3236 3236 3236 3236 3235 3235 3234 3233 3232 3231 3230 3230 3228 3227 3226 3225 3224 3223 3222 3221
3202 3201 3201 3200 3200 3200 3200 3199 3199 3199 3199 3199 3199 3199 3199 3199 3199 3200 3201 3201 3202 3203 3204 3205 3206 3207 3208 3209 3211 3212 3213 3214 3215 3216 3217 3217 3218 3219 3221 3222 3223 3223 3224 3225 3226 3228 3229 3229 3230 3231 3233 3233 3234 3234 3234 3234 3235 3235 3236 3236 3237 3238 3238 3238 3238 3238 3238 3238 3237 3237 3236 3235 3234 3233 3232 3231 3230 3229 3228 3227 3226 3225 3224 3223 3221
3202 3201 3201 3201 3201 3201 3201 3200 3200 3200 3199 3199 3199 3199 3199 3199 3200 3201 3202 3202 3202 3204 3205 3205 3205 3206 3208 3209 3211 3212 3213 3214 3215 3216 3217 3218 3219 3220 3222 3223 3223 3224 3225 3226 3228 3229 3230 3230 3232 3233 3234 3234 3235 3235 3235 3235 3236 3237 3237 3238 3239 3239 3240 3239 3239 3239 3239 3239 3238 3238 3236 3235 3234 3234 3233 3232 3231 3230 3229 3228 3227 3226 3225 3223 3222
3202 3202 3201 3201 3201 3202 3201 3201 3200 3200 3200 3200 3200 3200 3200 3200 3200 3201 3202 3202 3203 3205 3206 3205 3206 3207 3208 3210 3211 3213 3214 3215 3216 3217 3218 3219 3220 3221 3223 3224 3224 3225 3226 3227 3229 3230 3231 3231 3233 3234 3235 3235 3236 3236 3236 3237 3237 3238 3239 3239 3240 3241 3241 3241 3241 3241 3241 3240 3239 3238 3237 3236 3235 3235 3234 3233 3232 3231 3230 3229 3228 3227 3225 3224 3223
3203 3202 3202 3202 3202 3202 3202 3201 3201 3201 3200 3200 3201 3201 3201 3200 3201 3201 3202 3202 3203 3206 3206 3206 3208 3208 3209 3211 3212 3213 3214 3216 3217 3218 3219 3220 3221 3223 3224 3225 3226 3226 3227 3229 3230 3231 3232 3233 3234 3235 3236 3236 3237 3237 3237 3238 3238 3239 3240 3241 3242 3243 3243 3242 3242 3242 3242 3241 3240 3239 3238 3237 3236 3236 3235 3234 3233 3232 3231 3230 3229 3228 3226 3225 3223
3203 3203 3202 3202 3202 3202 3202 3202 3202 3201 3201 3201 3202 3202 3202 3201 3202 3202 3203 3203 3204 3206 3206 3207 3209 3209 3210 3211 3213 3214 3215 3216 3218 3219 3220 3221 3223 3224 3225 3226 3227 3228 3229 3230 3232 3233 3233 3234 3235 3236 3237 3237 3238 3238 3239 3239 3239 3240 3241 3242 3243 3244 3244 3243 3243 3244 3243 3243 3241 3240 3239 3238 3238 3237 3236 3235 3234 3233 3232 3231 3230 3229 3227 3226 3224
3204 3204 3203 3203 3203 3203 3202 3203 3203 3202 3202 3203 3203 3203 3203 3202 3203 3203 3203 3204 3205 3206 3207 3208 3210 3210 3211 3212 3214 3215 3217 3218 3219 3220 3222 3223 3224 3225 3226 3228 3229 3230 3231 3232 3233 3234 3235 3235 3237 3238 3238 3238 3239 3240 3240 3240 3240 3241 3242 3243 3245 3245 3245 3245 3245 3245 3245 3244 3243 3241 3241 3240 3239 3238 3237 3236 3235 3235 3233 3232 3231 3230 3229 3227 3226
3205 3204 3204 3204 3204 3203 3204 3204 3204 3203 3203 3204 3204 3204 3204 3204 3204 3204 3204 3205 3206 3207 3208 3209 3210 3211 3212 3213 3215 3216 3218 3219 3221 3222 3224 3225 3226 3227 3228 3229 3230 3231 3233 3234 3235 3235 3236 3237 3238 3239 3239 3239 3240 3240 3241 3241 3241 3242 3244 3245 3246 3246 3246 3246 3246 3246 3246 3245 3244 3243 3242 3241 3240 3239 3238 3238 3237 3236 3235 3234 3233 3232 3230 3229 3227
3205 3205 3205 3205 3204 3205 3205 3205 3205 3205 3205 3206 3206 3206 3206 3205 3205 3205 3206 3207 3207 3208 3209 3210 3211 3212 3214 3215 3216 3218 3219 3221 3222 3224 3225 3227 3228 3229 3230 3231 3232 3233 3234 3235 3236 3237 3238 3238 3239 3239 3239 3240 3241 3241 3242 3242 3243 3244 3245 3246 3247 3247 3247 3247 3248 3248 3247 3246 3245 3244 3243 3242 3242 3241 3240 3239 3239 3238 3237 3236 3235 3233 3232 3231 3229
3206 3206 3205 3206 3206 3206 3206 3206 3206 3206 3207 3207 3207 3207 3207 3207 3207 3207 3207 3208 3209 3209 3210 3211 3212 3214 3215 3217 3218 3219 3221 3222 3224 3225 3227 3228 3229 3231 3232 3233 3234 3235 3236 3237 3238 3238 3239 3240 3240 3240 3240 3241 3242 3243 3243 3243 3244 3245 3247 3248 3248 3248 3248 3249 3249 3249 3248 3247 3246 3246 3245 3244 3243 3243 3242 3241 3241 3240 3239 3238 3237 3235 3234 3233 3231
3207 3207 3207 3207 3207 3207 3207 3207 3207 3208 3208 3209 3209 3209 3209 3209 3208 3208 3209 3210 3211 3211 3212 3213 3214 3215 3217 3218 3219 3221 3223 3224 3225 3227 3229 3230 3231 3232 3233 3234 3236 3236 3237 3238 3239 3240 3240 3241 3241 3241 3242 3242 3244 3244 3244 3244 3245 3246 3248 3249 3249 3249 3250 3251 3251 3251 3250 3249 3248 3247 3247 3246 3245 3245 3244 3243 3243 3242 3241 3239 3238 3237 3236 3234 3233
3208 3208 3208 3208 3208 3208 3208 3208 3209 3209 3210 3210 3210 3210 3210 3210 3210 3210 3211 3212 3213 3213 3214 3215 3216 3217 3218 3219 3221 3223 3225 3226 3228 3229 3231 3231 3232 3234 3235 3236 3237 3238 3238 3239 3240 3241 3241 3242 3242 3242 3243 3243 3244 3245 3245 3246 3246 3247 3249 3250 3250 3251 3251 3252 3252 3252 3251 3250 3250 3249 3248 3248 3247 3246 3246 3245 3245 3243 3242 3241 3240 3239 3238 3236 3235
3209 3209 3209 3210 3210 3209 3209 3209 3210 3211 3211 3211 3212 3211 3212 3213 3213 3212 3213 3214 3215 3216 3216 3217 3218 3219 3220 3221 3223 3225 3227 3228 3230 3231 3232 3233 3234 3235 3236 3237 3238 3239 3239 3240 3240 3241 3242 3242 3243 3244 3244 3244 3244 3244 3245 3247 3248 3249 3251 3251 3252 3252 3253 3253 3254 3253 3252 3252 3251 3251 3250 3250 3249 3248 3248 3247 3246 3245 3244 3243 3242 3241 3240 3238 3237
3210 3210 3211 3211 3211 3211 3210 3211 3212 3212 3212 3213 3213 3213 3214 3215 3215 3215 3215 3216 3216 3218 3219 3220 3221 3222 3222 3223 3225 3227 3229 3230 3231 3232 3233 3234 3235 3236 3237 3237 3239 3240 3240 3241 3241 3242 3242 3243 3243 3244 3244 3244 3244 3245 3247 3248 3249 3251 3252 3253 3253 3253 3254 3255 3254 3254 3253 3253 3253 3252 3252 3252 3251 3250 3250 3249 3248 3247 3246 3245 3244 3243 3241 3240 3239
3211 3211 3212 3212 3212 3212 3211 3212 3213 3213 3214 3214 3214 3215 3215 3216 3217 3217 3217 3218 3218 3220 3221 3222 3223 3224 3224 3225 3227 3229 3230 3231 3232 3233 3234 3236 3236 3237 3238 3238 3239 3240 3241 3242 3242 3242 3243 3244 3244 3244 3244 3244 3245 3246 3248 3249 3250 3252 3254 3254 3254 3255 3255 3256 3255 3255 3255 3255 3255 3254 3254 3254 3253 3252 3251 3250 3250 3249 3247 3246 3245 3244 3243 3242 3241
3212 3212 3212 3213 3213 3213 3213 3213 3213 3214 3215 3216 3216 3216 3217 3218 3218 3218 3219 3220 3220 3221 3222 3224 3225 3226 3226 3227 3228 3230 3231 3232 3234 3234 3235 3237 3237 3238 3239 3240 3240 3241 3242 3243 3243 3243 3244 3244 3245 3245 3245 3245 3246 3247 3248 3249 3251 3253 3255 3255 3255 3256 3257 3257 3257 3256 3256 3257 3257 3256 3256 3256 3255 3254 3253 3252 3251 3250 3249 3248 3247 3246 3245 3244 3243
3212 3213 3213 3214 3214 3215 3215 3214 3214 3215 3216 3217 3218 3218 3218 3219 3220 3220 3221 3222 3222 3223 3224 3225 3226 3227 3228 3229 3230 3231 3232 3233 3234 3235 3236 3237 3238 3239 3240 3241 3241 3242 3243 3244 3244 3244 3245 3245 3246 3247 3247 3246 3247 3248 3249 3250 3252 3254 3255 3256 3256 3257 3258 3258 3258 3257 3257 3258 3259 3258 3258 3257 3256 3256 3255 3254 3253 3252 3251 3250 3248 3248 3247 3246 3245
3213 3214 3214 3215 3216 3216 3216 3216 3216 3217 3218 3218 3219 3220 3220 3221 3221 3222 3223 3224 3224 3225 3226 3226 3227 3229 3230 3231 3232 3233 3233 3234 3235 3236 3237 3238 3239 3240 3241 3242 3242 3243 3244 3244 3245 3245 3246 3247 3247 3248 3248 3248 3249 3249 3250 3251 3252 3254 3255 3256 3257 3258 3259 3259 3258 3258 3259 3260 3260 3259 3259 3258 3258 3257 3256 3255 3254 3253 3252 3251 3250 3249 3248 3247 3246
3212 3214 3215 3216 3217 3217 3218 3218 3218 3218 3219 3219 3220 3221 3222 3222 3222 3223 3224 3225 3226 3227 3227 3228 3229 3230 3231 3232 3233 3234 3234 3235 3236 3237 3238 3239 3240 3241 3242 3242 3243 3244 3244 3245 3245 3246 3247 3247 3248 3249 3249 3250 3251 3251 3251 3251 3253 3255 3256 3257 3258 3259 3260 3260 3259 3260 3261 3261 3261 3261 3261 3260 3259 3259 3258 3257 3256 3255 3254 3253 3252 3251 3250 3249 3248
3213 3214 3215 3216 3217 3218 3219 3219 3219 3220 3220 3220 3222 3222 3223 3223 3224 3224 3225 3226 3227 3228 3229 3230 3230 3231 3232 3233 3234 3235 3236 3236 3237 3238 3239 3240 3241 3242 3242 3243 3244 3245 3245 3245 3246 3247 3247 3248 3249 3250 3251 3252 3252 3253 3253 3253 3255 3256 3257 3258 3259 3260 3260 3260 3261 3261 3261 3262 3262 3262 3262 3261 3260 3260 3260 3259 3258 3257 3256 3255 3254 3253 3252 3251 3249
3213 3214 3215 3216 3217 3219 3220 3220 3220 3221 3221 3222 3223 3224 3224 3224 3225 3226 3226 3227 3228 3229 3230 3231 3232 3233 3234 3235 3235 3236 3237 3238 3239 3240 3240 3241 3242 3242 3243 3244 3245 3245 3246 3246 3247 3248 3249 3250 3250 3251 3252 3253 3254 3254 3254 3255 3256 3257 3258 3259 3260 3261 3261 3262 3262 3262 3262 3263 3263 3263 3262 3261 3261 3262 3261 3260 3259 3258 3257 3256 3256 3255 3253 3252 3251
3214 3215 3216 3217 3218 3219 3220 3221 3222 3223 3223 3223 3224 3224 3225 3226 3226 3227 3228 3228 3229 3230 3231 3232 3233 3234 3235 3236 3236 3237 3238 3239 3240 3241 3242 3242 3242 3243 3244 3245 3245 3246 3246 3247 3248 3249 3250 3251 3251 3252 3253 3254 3255 3255 3255 3255 3256 3257 3259 3260 3261 3262 3262 3263 3263 3263 3263 3264 3264 3263 3263 3262 3262 3262 3262 3262 3260 3259 3258 3258 3257 3256 3255 3254 3253
3214 3215 3216 3217 3217 3218 3220 3222 3223 3224 3225 3225 3225 3225 3226 3227 3228 3228 3229 3229 3230 3231 3232 3233 3235 3235 3236 3237 3238 3238 3239 3239 3240 3241 3242 3243 3243 3244 3244 3245 3246 3247 3247 3248 3249 3250 3251 3252 3253 3253 3254 3255 3255 3255 3256 3256 3256 3257 3259 3261 3262 3262 3263 3263 3263 3263 3263 3264 3264 3264 3263 3262 3262 3263 3263 3263 3261 3260 3259 3259 3258 3257 3257 3255 3254
3214 3215 3216 3217 3218 3219 3220 3221 3223 3224 3225 3226 3226 3226 3227 3228 3229 3229 3230 3231 3231 3232 3233 3234 3236 3236 3237 3238 3239 3239 3240 3241 3242 3242 3243 3244 3244 3245 3245 3246 3247 3247 3248 3249 3250 3251 3252 3253 3253 3254 3255 3255 3256 3256 3257 3257 3257 3258 3260 3261 3262 3263 3263 3264 3264 3264 3264 3264 3265 3265 3264 3263 3263 3263 3263 3263 3263 3261 3260 3259 3259 3258 3258 3257 3255
3215 3215 3216 3218 3219 3219 3220 3221 3222 3224 3225 3226 3227 3227 3228 3229 3229 3230 3231 3232 3232 3233 3234 3235 3236 3237 3238 3239 3240 3241 3241 3242 3243 3244 3244 3245 3246 3246 3246 3247 3248 3248 3249 3250 3251 3252 3253 3253 3254 3255 3255 3256 3256 3257 3258 3258 3259 3260 3261 3262 3263 3263 3264 3264 3265 3264 3264 3264 3265 3266 3265 3264 3264 3264 3264 3264 3263 3262 3261 3260 3260 3259 3259 3258 3257
3215 3216 3217 3219 3220 3220 3221 3222 3223 3224 3225 3226 3227 3228 3229 3230 3230 3231 3232 3233 3234 3234 3235 3236 3237 3238 3239 3240 3241 3242 3243 3243 3244 3245 3245 3246 3247 3247 3247 3248 3249 3250 3250 3251 3252 3253 3253 3254 3255 3255 3256 3256 3257 3258 3258 3259 3260 3261 3262 3263 3263 3264 3264 3265 3265 3265 3264 3264 3265 3266 3266 3265 3265 3264 3264 3264 3263 3263 3262 3261 3261 3260 3259 3258 3258
3216 3217 3218 3219 3220 3221 3222 3222 3223 3224 3225 3226 3227 3228 3229 3230 3231 3232 3232 3233 3234 3235 3236 3237 3238 3239 3240 3241 3241 3242 3243 3244 3245 3246 3246 3247 3248 3248 3249 3249 3250 3251 3251 3252 3252 3253 3253 3254 3255 3256 3257 3257 3258 3258 3259 3260 3261 3262 3262 3263 3264 3264 3264 3265 3265 3264 3264 3264 3265 3265 3266 3266 3265 3265 3265 3264 3263 3263 3262 3262 3262 3261 3260 3259 3258
3216 3217 3218 3219 3220 3221 3222 3223 3224 3224 3225 3226 3227 3228 3229 3230 3231 3232 3233 3233 3234 3235 3236 3237 3238 3239 3240 3241 3242 3243 3244 3244 3246 3246 3247 3248 3248 3249 3250 3250 3251 3251 3252 3252 3253 3253 3254 3254 3255 3256 3257 3258 3258 3258 3259 3260 3261 3262 3263 3263 3264 3265 3265 3264 3264 3264 3264 3264 3265 3265 3266 3266 3265 3265 3265 3265 3264 3263 3263 3263 3263 3262 3261 3260 3259
3216 3217 3218 3219 3221 3222 3223 3223 3224 3225 3226 3226 3227 3228 3229 3230 3231 3232 3233 3234 3235 3235 3236 3237 3238 3239 3240 3241 3242 3243 3244 3245 3246 3247 3248 3249 3249 3250 3250 3251 3251 3251 3252 3252 3253 3254 3255 3255 3255 3256 3257 3258 3258 3258 3259 3261 3262 3263 3263 3264 3264 3265 3265 3265 3265 3264 3264 3264 3265 3265 3266 3266 3265 3265 3265 3265 3264 3264 3264 3263 3263 3262 3261 3260 3259
3216 3217 3218 3220 3221 3222 3223 3224 3224 3225 3226 3227 3228 3229 3230 3231 3231 3232 3233 3235 3235 3236 3237 3238 3238 3239 3240 3241 3243 3244 3244 3245 3246 3247 3248 3249 3250 3251 3251 3251 3252 3252 3252 3253 3254 3255 3255 3256 3256 3257 3258 3258 3259 3259 3259 3260 3262 3263 3264 3265 3265 3265 3266 3266 3265 3265 3264 3265 3265 3265 3266 3266 3265 3265 3265 3265 3265 3264 3264 3264 3263 3262 3261 3261 3260
3216 3217 3219 3220 3221 3222 3223 3224 3225 3226 3227 3228 3228 3230 3230 3231 3231 3232 3233 3234 3236 3236 3237 3238 3239 3240 3241 3242 3243 3244 3245 3246 3247 3248 3249 3250 3251 3251 3252 3252 3252 3253 3253 3253 3254 3255 3255 3256 3257 3257 3258 3259 3259 3259 3259 3260 3261 3262 3264 3264 3265 3266 3266 3266 3266 3265 3265 3265 3265 3266 3267 3267 3266 3265 3265 3265 3265 3265 3265 3264 3263 3263 3262 3261 3261
3215 3217 3218 3220 3221 3222 3223 3224 3225 3226 3227 3228 3229 3230 3231 3231 3232 3233 3234 3235 3236 3237 3238 3239 3240 3241 3241 3242 3243 3245 3246 3247 3248 3249 3250 3251 3251 3252 3252 3253 3253 3253 3254 3254 3255 3256 3256 3256 3257 3258 3258 3259 3260 3260 3260 3260 3261 3262 3264 3264 3265 3266 3266 3267 3267 3266 3266 3266 3267 3267 3267 3267 3267 3266 3265 3265 3265 3266 3265 3264 3264 3264 3263 3262 3261
3215 3216 3217 3219 3220 3222 3223 3224 3225 3226 3228 3229 3229 3230 3231 3232 3233 3234 3235 3235 3236 3237 3238 3239 3240 3241 3242 3243 3244 3245 3246 3247 3248 3249 3250 3251 3252 3252 3253 3253 3254 3254 3255 3255 3256 3256 3256 3257 3257 3258 3258 3259 3260 3261 3261 3261 3262 3263 3264 3264 3265 3266 3266 3267 3267 3267 3267 3267 3268 3268 3268 3267 3267 3266 3266 3265 3265 3265 3265 3265 3265 3264 3263 3262 3261
3214 3215 3217 3218 3220 3221 3223 3224 3225 3226 3227 3229 3230 3230 3231 3233 3234 3234 3235 3236 3237 3238 3239 3240 3240 3241 3242 3243 3244 3245 3246 3247 3248 3249 3250 3251 3252 3252 3253 3254 3254 3255 3255 3255 3256 3256 3256 3257 3257 3258 3259 3259 3260 3261 3262 3262 3263 3263 3264 3264 3265 3266 3266 3266 3267 3267 3267 3267 3267 3267 3267 3267 3267 3267 3266 3266 3265 3265 3264 3264 3264 3263 3263 3262 3261
3213 3215 3216 3218 3219 3221 3222 3224 3225 3226 3227 3229 3230 3231 3232 3233 3234 3235 3236 3236 3237 3238 3239 3240 3241 3241 3242 3243 3244 3245 3246 3247 3248 3249 3250 3251 3252 3252 3253 3254 3254 3255 3255 3255 3256 3256 3257 3257 3257 3258 3259 3260 3261 3261 3262 3263 3263 3264 3264 3264 3264 3265 3266 3266 3267 3267 3267 3267 3267 3266 3266 3267 3267 3267 3266 3266 3266 3265 3264 3264 3264 3263 3262 3262 3261
3212 3213 3215 3217 3218 3220 3222 3223 3224 3225 3227 3228 3230 3231 3232 3233 3234 3235 3236 3237 3237 3238 3239 3241 3241 3242 3242 3243 3244 3245 3246 3247 3248 3249 3250 3251 3251 3252 3253 3254 3254 3255 3255 3256 3256 3257 3257 3258 3258 3258 3259 3260 3261 3261 3262 3263 3263 3263 3263 3263 3263 3264 3265 3266 3266 3266 3267 3267 3267 3266 3266 3266 3266 3266 3266 3265 3266 3265 3264 3264 3264 3263 3262 3261 3261